logo
Search for airport 
image banner adimage banner adimage banner ad
image banner ad

SITZ - Itc Central Park I

Located in Fortaleza, Brazil

ICAO - SITZ, IATA -

Data provided by Airmate  

General information

Coordinates: S3°44'21" W38°28'24"
Elevation is 337 feet MSL.
Magnetic variation is -21° East
View others Airports in Ceará

Operational data

Special qualification required
Current time UTC:
Current local time:
Weather at : SBFZ - Fortaleza / Pinto Martins ( 8 km )
METAR: SBFZ 140400Z 25003KT 9999 FEW016 SCT021 FEW030TCU 27/26 Q1009
TAF: TAF SBFZ 140315Z 1406/1506 18005KT 7000 BKN015 FEW030TCU TN26/1409Z TX30/1418Z PROB40 1406/1409 4000 SHRA BECMG 1412/1414 16007KT SCT020 BECMG 1414/1416 12010KT BKN025 FEW030TCU BECMG 1420/1422 08005KT FEW020 TEMPO 1503/1506 18005KT 4000 RA BKN015 FEW030TCU RMK PHN
View NOTAMs / SUP AIP / TFR affecting this airport [VIEW]
Communications frequencies: [VIEW]

Runways:

Airport contact information

Address: Fortaleza Brazil

Satellite view of SITZ